Find Kosmos-1366

NORAD ID: 13177 Int'l Des: 1982-044 Owner: GUKOS Country: SU operational
HEOCIRCULARGSO

Live-Position

3D-Globus wird geladen...

Über Kosmos-1366

Beschreibung wird geladen...

Nächste Überflüge

Passes for default location (London). Set your location on the main map for personalized predictions.

Höhenverlauf

Loading altitude history...

Zweizeiliger Elementsatz

1 13177U 82044A 26107.09765221 -.00000136 00000-0 00000-0 0 9996
2 13177 8.4399 297.8696 0008538 115.9584 264.9741 1.00287262133006
Epoch: 17. Apr. 2026 • Age: 14 hours

Aktueller Status

Höhe 35800.6 km
Geschwindigkeit 3.07 km/s
Subsatellitenpunkt -6.93°S, 78.24°E
Startdatum 17. Mai 1982
Alter 43.9 years
Typ other

Technische Details

Klassifizierung Payload
Masse 2100.00 kg
Trockenmasse 1900.00 kg
Gesamtmasse 2100.00 kg
Länge 5.50 m
Durchmesser 2.50 m
Spannweite 9.00 m
Form Cyl + 2 Pan + Plate
Hersteller NPOPM
Bus-Typ Geizer
Phasenstatus In Orbit
Besitzer/Staat GUKOS/SU

Most Searched